Location: Boursonne
(49.2024°N, 3.0468°E)
Time: 00:35:36
(UTC+00:00)

USA 186 - Pass Details

Date: 03 March 2021
Orbit: 261 x 430 km, 96.9° (Epoch: 11 April)

Event Time Altitude Azimuth Distance (km) Brightness Sun altitude
Exits shadow 20:00:03 15° 297° (WNW) 914 4.4 -24.3°
Drops below altitude 10° 20:00:55 10° 315° (NW) 1,166 4.9 -24.4°
Sets 20:03:09 0° 335° (NNW) 2,033 5.9 -24.8°
